#timestamp,LO_Frequency,Hit,StdDev 
1504173615.3,286046999.0,N,1.0
1504173635.1,286046998.8,N,1.0
1504173655.9,286046998.9,N,0.9
1504173675.7,286046999.3,N,0.9
1504173695.5,286046996.5,Y,0.0
1504173715.4,286046996.5,P,1.5
1504173735.2,286046997.1,N,1.3
1504173755.1,286046997.1,N,1.1
1504173756.0,286046997.1,N,1.0
1504173775.8,286046998.8,N,1.1
1504173795.6,286046996.5,Y,0.0
1504173815.5,286046998.2,P,0.3
1504173835.3,286047000.8,N,1.4
1504173855.2,286046998.7,N,1.2
1504173875.9,286046998.8,N,1.1
1504173895.7,286046998.8,N,1.0
1504173915.6,286046999.5,N,0.9
1504173935.4,286046996.9,Y,0.0
1504173955.3,286046996.6,P,1.2
1504173975.1,286046998.7,N,1.0
1504173976.0,286046998.7,N,0.9
1504173995.8,286046998.2,N,0.8
1504174015.7,286046998.8,N,0.8
1504174035.5,286046999.0,N,0.8
1504174055.3,286046998.5,N,0.7
1504174075.2,286046998.4,N,0.7
1504174095.0,286046998.9,N,0.7
1504174095.9,286046998.9,N,0.6
1504174115.8,286046998.1,N,0.6
1504174135.6,286046998.4,N,0.6
1504174155.4,286047001.2,N,0.9
1504174175.3,286047001.1,N,1.1
1504174195.1,286046999.0,N,1.0
1504174215.9,286046999.6,N,1.0
1504174235.7,286046996.5,Y,0.0
1504174255.5,286046999.4,P,0.3
1504174275.4,286046999.0,P,0.2
1504174295.2,286046999.5,N,0.3
1504174315.1,286046998.9,Y,0.0
1504174316.0,286046998.9,P,0.1
1504174335.8,286046998.1,P,0.5
1504174355.6,286047001.2,N,1.1
1504174375.5,286047001.0,N,1.2
1504174395.3,286046998.6,N,1.2
1504174415.1,286047001.1,N,1.2
1504174435.9,286046998.5,N,1.2
1504174455.7,286047001.2,N,1.3
1504174475.6,286047000.3,N,1.2
1504174495.4,286047000.4,N,1.2
1504174515.2,286047000.8,N,1.1
1504174535.1,286047001.1,N,1.1
1504174536.0,286047001.1,N,1.1
1504174555.8,286046998.7,N,1.1
1504174575.7,286046998.7,N,1.2
1504174595.5,286046999.0,N,1.1
1504174615.3,286046998.3,N,1.2
1504174635.2,286046998.8,N,1.2
1504174655.0,286046998.8,N,1.1
1504174655.9,286046998.8,N,1.1
1504174675.7,286046998.6,N,1.1
1504174695.6,286046998.2,N,1.1
1504174715.4,286047000.8,N,1.1
1504174735.3,286047000.8,N,1.1
1504174755.1,286047000.9,N,1.2
1504174775.8,286047000.4,N,1.1
1504174795.7,286047001.1,N,1.1
1504174815.5,286047001.1,N,1.2
1504174835.4,286047000.4,N,1.1
1504174855.2,286046999.6,N,1.1
1504174875.0,286046999.3,N,1.1
1504174875.9,286046999.3,N,1.1
1504174895.8,286047001.1,N,1.1
1504174915.6,286046998.7,N,1.1
1504174935.5,286046999.0,N,1.1
1504174955.3,286046998.3,N,1.1
1504174975.1,286046999.1,N,1.1
1504174995.9,286046998.9,N,1.0
1504175015.7,286046999.5,N,1.0
1504175035.5,286046998.8,N,1.0
1504175055.4,286046999.5,N,1.0
1504175075.2,286046997.3,N,1.0
1504175095.1,286046997.3,N,1.1
1504175096.0,286046997.3,N,1.1
1504175115.8,286046996.8,N,1.2
1504175135.6,286046996.8,N,1.3
1504175155.5,286046996.7,N,1.3
1504175175.3,286046999.2,N,1.3
1504175195.2,286046997.0,N,1.4
1504175215.9,286046997.1,N,1.4
1504175235.7,286046997.4,N,1.5
1504175255.6,286046997.4,N,1.5
1504175275.4,286046997.4,N,1.5
1504175295.2,286046996.7,N,1.4
1504175315.1,286046997.3,N,1.4
1504175316.0,286046997.3,N,1.4
1504175335.8,286046996.6,N,1.3
1504175355.7,286046998.3,N,1.2
1504175375.5,286046998.6,N,1.1
1504175395.3,286046998.2,N,1.1
1504175415.2,286046998.4,N,1.1
1504175435.0,286046999.3,N,1.1
1504175435.9,286046999.3,N,1.0
1504175455.8,286046999.0,N,1.0
1504175475.6,286046998.9,N,1.0
1504175495.4,286046998.2,N,1.0
1504175515.3,286047001.2,N,1.1
1504175535.1,286047000.5,N,1.2
1504175555.9,286047000.9,N,1.3
1504175575.7,286046998.2,N,1.3
1504175595.5,286047001.2,N,1.4
1504175615.4,286047000.0,N,1.4
1504175635.2,286047002.7,N,1.6
1504175655.0,286047002.3,N,1.7
1504175655.9,286047002.3,N,1.8
1504175675.8,286046999.8,N,1.8
1504175695.6,286046999.7,N,1.7
1504175715.5,286047000.3,N,1.7
1504175735.3,286047000.7,N,1.7
1504175755.1,286047000.3,N,1.7
1504175775.9,286047000.6,N,1.7
1504175795.7,286047000.3,N,1.6
1504175815.6,286047000.7,N,1.6
1504175835.4,286047002.6,N,1.6
1504175855.2,286046999.8,N,1.5
1504175875.1,286047002.6,N,1.5
1504175876.0,286047002.6,N,1.4
1504175895.8,286046999.7,N,1.4
1504175915.6,286047002.0,N,1.4
1504175935.5,286046999.8,N,1.3
1504175955.3,286047002.3,N,1.3
1504175975.2,286047002.4,N,1.3
1504175995.9,286047002.7,N,1.4
1504176015.7,286047004.3,Y,0.0
1504176035.6,286047002.4,P,0.8
1504176055.4,286047002.6,P,0.8
1504176075.3,286047002.3,N,0.7
1504176095.1,286047002.7,Y,0.0
1504176096.0,286047002.7,P,0.3
1504176115.8,286047001.0,N,0.7
1504176135.7,286047000.7,N,0.8
1504176155.5,286047000.5,N,0.8
1504176175.4,286047001.0,N,0.8
1504176195.2,286047001.0,N,0.7
1504176215.0,286047000.0,N,0.8
1504176215.9,286047000.0,N,0.8
1504176235.8,286047002.7,Y,0.0
1504176255.6,286047000.5,P,0.2
1504176275.5,286047001.0,P,0.2
1504176295.3,286047002.4,P,0.7
1504176315.1,286046999.8,N,0.9
1504176335.9,286046999.8,N,0.9
1504176355.7,286047000.2,N,0.8
1504176375.5,286047000.6,N,0.8
1504176395.4,286047000.4,N,0.7
1504176415.2,286047000.1,N,0.7
1504176435.1,286047000.4,N,0.7
1504176436.0,286047000.4,N,0.7
1504176455.8,286047001.0,N,0.7
1504176475.6,286047000.3,N,0.6
1504176495.5,286047000.1,N,0.6
1504176515.3,286047000.0,N,0.6
1504176535.2,286047000.1,N,0.6
1504176555.9,286046999.8,N,0.6
1504176575.7,286047002.1,Y,0.0
1504176595.6,286047002.3,P,0.9
1504176615.4,286047002.7,N,1.0
1504176635.3,286047000.1,N,1.1
1504176655.1,286047002.3,N,1.1
1504176675.8,286047002.6,N,1.1
1504176695.7,286047002.6,N,1.0
1504176715.5,286046999.7,N,1.2
1504176735.4,286047002.4,N,1.2
1504176755.2,286047002.4,N,1.1
1504176775.0,286047002.6,N,1.1
1504176775.9,286047002.6,N,1.1
1504176795.8,286046999.9,N,1.2
1504176815.6,286047001.5,N,1.1
1504176835.4,286047004.3,Y,0.0
1504176855.3,286047000.5,P,0.6
1504176875.1,286047002.4,P,0.8
1504176895.9,286046999.7,N,1.0
1504176915.7,286047002.2,N,1.0
1504176935.5,286047002.3,N,1.0
1504176955.4,286046999.7,N,1.1
1504176975.2,286046999.9,N,1.1
1504176995.1,286047001.9,N,1.1
1504176996.0,286047001.9,N,1.1
1504177015.8,286047002.3,N,1.1
1504177035.6,286047002.8,N,1.1
1504177055.5,286046999.9,N,1.1
1504177075.3,286047002.8,N,1.2
1504177095.1,286047002.2,N,1.1
1504177115.9,286047001.6,N,1.1
1504177135.7,286047001.3,N,1.1
1504177155.6,286047002.2,N,1.1
1504177175.4,286047002.6,N,1.1
1504177195.2,286047002.6,N,1.1
